CW7972 Weather Reports


Display with metric or nautical units.
time (UTC)temp
F
wind
direction
speed
MPH
gust
MPH
rain 1hr
in
rain 24hr
in
rain mn
in
humidity
%
barometer
mb
20260509064504 58 296 5.0 13.0 0.00 0.20 0.09 79 1001.8
20260509064004 58 290 5.0 14.0 0.00 0.20 0.09 79 1001.7
20260509063504 58 289 7.0 20.0 0.00 0.20 0.09 78 1001.7
20260509063218 58 293 8.0 20.0 0.00 0.20 0.09 78 1001.7
20260509062719 58 303 7.0 20.0 0.00 0.20 0.09 78 1001.7
20260509062004 59 309 9.0 19.0 0.00 0.20 0.09 79 1001.7
20260509061719 59 309 8.0 19.0 0.00 0.20 0.09 79 1001.6
20260509061004 59 306 7.0 19.0 0.00 0.20 0.09 81 1001.6
20260509060718 59 305 7.0 15.0 0.00 0.20 0.09 82 1001.6
20260509060005 59 301 7.0 15.0 0.00 0.20 0.09 83 1001.6
20260509055718 59 300 7.0 15.0 0.00 0.20 0.09 83 1001.5
20260509055004 59 310 7.0 14.0 0.00 0.20 0.09 82 1001.5
20260509054505 59 313 6.0 17.0 0.00 0.20 0.09 82 1001.5
20260509054004 59 313 6.0 18.0 0.00 0.20 0.09 83 1001.5
20260509053504 59 311 6.0 18.0 0.00 0.20 0.09 83 1001.5
20260509053004 59 310 6.0 16.0 0.00 0.20 0.09 84 1001.5
20260509052504 59 305 6.0 14.0 0.00 0.20 0.09 84 1001.4
20260509052219 59 305 7.0 16.0 0.00 0.20 0.09 84 1001.3
20260509051504 59 313 7.0 16.0 0.00 0.20 0.09 85 1001.3
20260509051219 59 311 6.0 15.0 0.00 0.20 0.09 85 1001.3
20260509050504 59 303 4.0 15.0 0.00 0.20 0.09 86 1001.2
20260509050004 59 304 5.0 12.0 0.01 0.20 0.09 86 1001.2
20260509045504 59 304 5.0 12.0 0.01 0.20 0.09 86 1001.2
20260509045004 59 308 5.0 17.0 0.01 0.20 0.09 86 1001.2
20260509044504 59 312 6.0 19.0 0.01 0.20 0.09 86 1001.2
20260509044004 59 310 6.0 19.0 0.04 0.20 0.09 86 1001.2
20260509043504 59 307 5.0 15.0 0.04 0.20 0.09 86 1001.2
20260509043219 59 306 6.0 14.0 0.04 0.20 0.09 86 1001.2
20260509042504 59 314 7.0 25.0 0.04 0.20 0.09 85 1001.1
20260509042219 59 315 7.0 25.0 0.04 0.20 0.09 85 1001.1
20260509041504 59 309 7.0 17.0 0.04 0.20 0.09 87 1001.1
20260509041004 59 308 8.0 21.0 0.04 0.20 0.09 87 1001.2
20260509040504 59 305 8.0 21.0 0.04 0.20 0.09 87 1001.3
20260509040005 59 305 7.0 20.0 0.02 0.19 0.08 89 1001.4
20260509035504 59 300 8.0 20.0 0.02 0.19 0.08 89 1001.5
20260509035004 59 292 9.0 20.0 0.02 0.19 0.08 88 1001.4
20260509034504 59 289 9.0 24.0 0.02 0.19 0.08 88 1001.3
20260509034004 60 284 8.0 24.0 0.00 0.17 0.06 84 1001.2
20260509033504 61 285 9.0 20.0 0.00 0.17 0.06 82 1001.1
20260509033005 62 285 10.0 26.0 0.00 0.17 0.06 80 1001.1
20260509032504 62 285 9.0 26.0 0.00 0.17 0.06 79 1001.0
20260509032004 64 298 9.0 21.0 0.00 0.17 0.06 76 1001.0
20260509031504 63 297 9.0 25.0 0.00 0.17 0.06 80 1001.0
20260509031004 62 293 9.0 25.0 0.00 0.17 0.06 80 1000.9
20260509030504 62 296 9.0 22.0 0.00 0.17 0.06 80 1000.8
20260509030004 62 302 9.0 21.0 0.00 0.17 0.06 81 1000.7
20260509025504 63 301 8.0 21.0 0.00 0.17 0.06 79 1000.6
20260509025004 64 311 7.0 23.0 0.00 0.17 0.06 78 1000.6
20260509024504 64 316 8.0 29.0 0.00 0.17 0.06 78 1000.6
20260509024004 64 307 9.0 29.0 0.00 0.17 0.06 78 1000.6
20260509023504 63 303 9.0 26.0 0.00 0.17 0.06 78 1000.6
20260509023004 63 302 7.0 22.0 0.00 0.17 0.06 79 1000.6
20260509022504 62 298 7.0 18.0 0.00 0.17 0.06 83 1000.7
20260509022004 61 297 7.0 19.0 0.00 0.17 0.06 84 1000.7
20260509021504 62 297 7.0 22.0 0.00 0.17 0.06 83 1000.7
20260509021004 62 293 9.0 24.0 0.00 0.17 0.06 81 1000.6
20260509020719 62 294 9.0 24.0 0.00 0.17 0.06 80 1000.6
20260509020004 64 308 8.0 23.0 0.00 0.17 0.06 78 1000.5
20260509015504 63 309 7.0 28.0 0.00 0.17 0.06 79 1000.6
20260509015218 63 307 8.0 29.0 0.00 0.17 0.06 79 1000.7
20260509014504 63 316 9.0 29.0 0.00 0.17 0.06 79 1000.8
20260509014004 63 317 7.0 25.0 0.00 0.17 0.06 79 1000.9
20260509013504 63 311 6.0 21.0 0.00 0.17 0.06 80 1001.0
20260509013218 63 312 6.0 21.0 0.00 0.17 0.06 82 1001.1
20260509012504 62 304 6.0 17.0 0.00 0.17 0.06 83 1001.4
20260509012004 62 306 5.0 17.0 0.00 0.17 0.06 81 1001.6
20260509011504 62 313 4.0 17.0 0.00 0.17 0.06 82 1001.7
20260509011004 62 307 4.0 15.0 0.00 0.17 0.06 83 1001.8
20260509010505 61 307 4.0 17.0 0.00 0.17 0.06 83 1001.9
20260509010004 61 306 4.0 17.0 0.00 0.17 0.06 83 1002.0
20260509005504 61 304 4.0 11.0 0.01 0.17 0.06 84 1002.0
20260509005004 61 311 5.0 16.0 0.01 0.17 0.06 84 1002.1
20260509004504 61 319 6.0 17.0 0.01 0.17 0.06 84 1002.2
20260509004004 61 317 4.0 17.0 0.01 0.17 0.06 85 1002.3
20260509003504 60 305 3.0 17.0 0.01 0.17 0.06 86 1002.3
20260509003004 60 310 3.0 13.0 0.01 0.17 0.06 86 1002.4
20260509002504 60 311 4.0 15.0 0.01 0.17 0.06 86 1002.5
20260509002004 60 309 5.0 15.0 0.01 0.17 0.06 87 1002.5
20260509001718 60 309 5.0 17.0 0.01 0.17 0.06 88 1002.5
20260509001004 59 303 8.0 22.0 0.01 0.17 0.06 88 1002.3
20260509000504 59 295 8.0 29.0 0.01 0.17 0.06 88 1002.3
20260509000004 60 288 7.0 29.0 0.01 0.17 0.06 85 1002.1
20260508235504 61 286 5.0 16.0 0.00 0.15 0.05 80 1001.9
20260508235004 61 288 4.0 16.0 0.00 0.15 0.05 79 1001.9
20260508234505 62 288 4.0 17.0 0.00 0.15 0.05 79 1001.9
20260508234004 62 284 4.0 17.0 0.00 0.15 0.05 78 1001.9
20260508233504 62 286 5.0 13.0 0.00 0.15 0.05 75 1001.9
20260508233004 62 282 6.0 18.0 0.00 0.15 0.05 75 1002.0
20260508232718 62 282 6.0 18.0 0.00 0.15 0.05 75 1002.0
20260508232004 63 288 4.0 12.0 0.00 0.15 0.05 75 1002.0
20260508231504 63 286 3.0 10.0 0.00 0.15 0.05 74 1002.0
20260508231004 63 288 3.0 11.0 0.00 0.15 0.05 74 1002.1
20260508230504 63 283 3.0 17.0 0.00 0.15 0.05 73 1002.1
20260508230004 63 286 3.0 17.0 0.00 0.15 0.05 75 1002.2
20260508225504 63 287 3.0 12.0 0.00 0.15 0.05 74 1002.4
20260508225004 64 290 3.0 12.0 0.00 0.15 0.05 74 1002.4
20260508224504 64 304 4.0 12.0 0.00 0.15 0.05 73 1002.5
20260508224004 64 305 4.0 12.0 0.00 0.15 0.05 74 1002.5
20260508223504 64 307 4.0 13.0 0.00 0.15 0.05 74 1002.5
20260508223004 64 308 4.0 13.0 0.00 0.15 0.05 75 1002.5
20260508222504 64 307 4.0 12.0 0.00 0.15 0.05 74 1002.5
20260508222005 64 306 3.0 10.0 0.00 0.15 0.05 75 1002.6
20260508221504 63 306 3.0 10.0 0.00 0.15 0.05 76 1002.6
20260508221004 63 306 4.0 11.0 0.00 0.15 0.05 77 1002.7
20260508220504 63 306 3.0 11.0 0.00 0.15 0.05 76 1002.7
20260508220004 63 307 3.0 9.0 0.00 0.15 0.05 77 1002.6
20260508215504 62 305 2.0 9.0 0.00 0.15 0.05 78 1002.6
20260508215004 62 300 2.0 7.0 0.00 0.15 0.05 79 1002.6
20260508214504 62 306 2.0 9.0 0.00 0.15 0.05 80 1002.5
20260508214003 61 306 3.0 9.0 0.00 0.15 0.05 80 1002.4
20260508213504 61 311 2.0 6.0 0.00 0.15 0.05 81 1002.4
20260508213004 61 324 2.0 7.0 0.00 0.15 0.05 82 1002.4
20260508212719 61 333 2.0 7.0 0.00 0.15 0.05 83 1002.4
20260508212004 60 323 2.0 6.0 0.00 0.15 0.05 84 1002.4
20260508211504 60 314 2.0 6.0 0.00 0.15 0.05 84 1002.4
20260508211004 60 327 2.0 5.0 0.00 0.15 0.05 85 1002.3
20260508210504 60 341 2.0 5.0 0.00 0.15 0.05 85 1002.3
20260508210005 59 333 2.0 5.0 0.00 0.15 0.05 85 1002.3
20260508205504 59 343 2.0 7.0 0.00 0.15 0.05 86 1002.2
20260508205003 59 350 2.0 7.0 0.00 0.15 0.05 86 1002.2
20260508204504 58 333 2.0 7.0 0.00 0.15 0.05 86 1002.2
20260508204220 58 333 1.0 7.0 0.00 0.15 0.05 86 1002.2
20260508203504 58 332 1.0 7.0 0.00 0.15 0.05 87 1002.3
20260508203004 58 317 1.0 7.0 0.00 0.15 0.05 87 1002.3
20260508202505 58 309 2.0 7.0 0.00 0.15 0.05 87 1002.3
20260508202004 58 301 2.0 7.0 0.00 0.15 0.05 87 1002.4
20260508201719 58 300 2.0 7.0 0.00 0.15 0.05 87 1002.4
20260508201218 58 302 2.0 13.0 0.00 0.15 0.05 87 1002.3
20260508200504 58 326 3.0 10.0 0.00 0.15 0.05 88 1002.3
20260508200004 58 338 3.0 11.0 0.00 0.15 0.05 89 1002.3
20260508195719 58 338 3.0 11.0 0.00 0.15 0.05 89 1002.3
20260508195217 58 346 2.0 10.0 0.00 0.15 0.05 89 1002.2
20260508194504 57 350 2.0 6.0 0.00 0.15 0.05 90 1002.2
20260508194004 57 337 1.0 6.0 0.00 0.15 0.05 90 1002.2
20260508193504 57 339 1.0 5.0 0.00 0.15 0.05 90 1002.2
20260508193004 57 339 1.0 5.0 0.00 0.15 0.05 90 1002.3
20260508192718 57 310 1.0 5.0 0.00 0.15 0.05 90 1002.3
20260508192004 57 304 1.0 6.0 0.00 0.15 0.05 90 1002.4
20260508191504 57 310 1.0 6.0 0.00 0.15 0.05 90 1002.5
20260508191004 57 315 3.0 9.0 0.00 0.15 0.05 90 1002.5
20260508190504 57 314 3.0 13.0 0.00 0.15 0.05 90 1002.6
20260508190004 57 314 2.0 13.0 0.00 0.15 0.05 91 1002.6
20260508185504 57 315 3.0 9.0 0.00 0.15 0.05 91 1002.7
20260508185004 57 310 3.0 8.0 0.00 0.15 0.05 92 1002.7
20260508184504 56 307 1.0 8.0 0.00 0.15 0.05 93 1002.8
20260508184004 56 292 0.0 5.0 0.00 0.15 0.05 93 1002.8
20260508183504 56 313 0.0 4.0 0.00 0.15 0.05 93 1002.8
20260508183004 55 328 0.0 4.0 0.00 0.15 0.05 93 1002.7
20260508182504 55 346 0.0 3.0 0.00 0.15 0.05 93 1002.7
20260508182004 55 357 1.0 4.0 0.00 0.15 0.05 93 1002.7
20260508181504 54 3 0.0 4.0 0.00 0.15 0.05 93 1002.7
20260508181004 54 359 0.0 4.0 0.00 0.15 0.05 93 1002.7
20260508180505 54 356 0.0 4.0 0.00 0.15 0.05 93 1002.8
20260508180219 54 353 0.0 4.0 0.00 0.15 0.05 93 1002.8
20260508175504 54 0 0.0 1.0 0.00 0.15 0.05 93 1002.9
20260508175004 54 0 0.0 1.0 0.00 0.15 0.05 93 1002.9
20260508174504 54 0 0.0 0.0 0.00 0.15 0.05 92 1002.9
20260508174004 54 0 0.0 0.0 0.00 0.15 0.05 92 1002.9
20260508173718 55 0 0.0 0.0 0.00 0.15 0.05 92 1002.9
20260508173004 55 0 0.0 0.0 0.00 0.15 0.05 93 1002.9
20260508172504 55 0 0.0 0.0 0.00 0.15 0.05 93 1002.9
20260508172004 55 0 0.0 0.0 0.00 0.15 0.05 93 1002.9
20260508171504 55 0 0.0 0.0 0.00 0.15 0.05 93 1002.9
20260508171004 55 0 0.0 0.0 0.00 0.15 0.05 93 1002.8
20260508170504 55 0 0.0 0.0 0.00 0.15 0.05 92 1002.8
20260508170004 55 0 0.0 0.0 0.00 0.15 0.05 92 1002.8
20260508165504 55 0 0.0 0.0 0.00 0.15 0.05 92 1002.8
20260508165004 55 0 0.0 0.0 0.00 0.15 0.05 92 1002.7
20260508164504 55 0 0.0 0.0 0.00 0.15 0.05 92 1002.7
20260508164004 54 0 0.0 0.0 0.00 0.15 0.05 92 1002.7
20260508163504 54 0 0.0 0.0 0.00 0.15 0.05 92 1002.7
20260508163005 54 0 0.0 0.0 0.00 0.15 0.05 92 1002.7
20260508162717 54 0 0.0 0.0 0.00 0.15 0.05 92 1002.7
20260508162004 54 0 0.0 1.0 0.00 0.15 0.05 92 1002.7
20260508161719 54 0 0.0 1.0 0.00 0.15 0.05 92 1002.7
20260508161004 54 0 0.0 0.0 0.00 0.15 0.05 92 1002.7
20260508160504 55 0 0.0 0.0 0.00 0.15 0.05 92 1002.7
20260508160218 55 0 0.0 0.0 0.00 0.15 0.05 92 1002.8
20260508155719 55 0 0.0 0.0 0.00 0.15 0.05 92 1002.8
20260508155004 56 0 0.0 0.0 0.00 0.15 0.05 92 1003.0
20260508154504 56 0 0.0 0.0 0.00 0.15 0.05 92 1003.1
20260508154004 56 0 0.0 0.0 0.00 0.15 0.05 92 1003.2
20260508153504 57 0 0.0 0.0 0.00 0.15 0.05 92 1003.3
20260508153004 57 0 0.0 1.0 0.00 0.15 0.05 92 1003.4
20260508152504 57 0 0.0 1.0 0.00 0.15 0.05 92 1003.5
20260508152004 57 0 0.0 2.0 0.00 0.15 0.05 92 1003.6
20260508151504 57 0 0.0 2.0 0.00 0.15 0.05 92 1003.6
20260508151003 57 0 0.0 1.0 0.00 0.15 0.05 92 1003.7
20260508150504 57 0 0.0 0.0 0.00 0.15 0.05 92 1003.8
20260508150005 57 0 0.0 0.0 0.00 0.15 0.05 92 1003.9
20260508145505 57 0 0.0 0.0 0.00 0.15 0.05 92 1003.9
20260508145218 57 0 0.0 0.0 0.00 0.15 0.05 92 1004.0
20260508144504 57 284 0.0 3.0 0.00 0.15 0.05 92 1004.1
20260508144005 57 294 0.0 2.0 0.00 0.15 0.05 92 1004.1
20260508143504 57 299 0.0 3.0 0.00 0.15 0.05 92 1004.0
20260508143004 57 295 1.0 6.0 0.00 0.15 0.05 92 1003.9
20260508142718 57 293 1.0 6.0 0.00 0.15 0.05 91 1003.9
20260508142004 57 285 0.0 2.0 0.00 0.15 0.05 92 1003.8
20260508141718 57 264 0.0 2.0 0.00 0.15 0.05 91 1003.8
20260508141217 57 0 0.0 1.0 0.00 0.15 0.05 91 1003.8
20260508140504 57 278 0.0 4.0 0.00 0.15 0.05 91 1003.8
20260508140004 57 279 1.0 6.0 0.00 0.15 0.05 91 1003.8
20260508135504 57 288 2.0 6.0 0.00 0.15 0.05 91 1003.8
20260508135004 57 291 2.0 7.0 0.00 0.15 0.05 91 1003.8
20260508134504 57 296 2.0 7.0 0.00 0.15 0.05 91 1003.8
20260508134003 57 308 2.0 6.0 0.00 0.15 0.05 91 1003.9
20260508133503 58 312 1.0 6.0 0.00 0.15 0.05 92 1003.9
20260508133003 58 313 1.0 4.0 0.00 0.15 0.05 92 1003.9
20260508132504 58 307 1.0 5.0 0.00 0.15 0.05 92 1003.9
20260508132003 58 305 2.0 8.0 0.01 0.15 0.05 92 1003.9
20260508131504 58 309 3.0 11.0 0.02 0.15 0.05 92 1003.8
20260508131004 59 307 3.0 11.0 0.02 0.15 0.05 92 1003.7
20260508130504 59 308 3.0 8.0 0.04 0.15 0.05 93 1003.7
20260508130004 59 310 3.0 7.0 0.05 0.15 0.05 93 1003.7
20260508125504 59 305 2.0 7.0 0.06 0.15 0.05 93 1003.8
20260508125004 59 301 2.0 7.0 0.08 0.15 0.05 93 1003.8
20260508124718 58 301 3.0 8.0 0.09 0.15 0.05 93 1003.8
20260508124004 58 305 2.0 8.0 0.11 0.15 0.05 93 1003.8
20260508123504 58 298 3.0 10.0 0.11 0.15 0.05 93 1003.8
20260508123219 58 299 4.0 12.0 0.11 0.15 0.05 93 1003.8
20260508122504 58 302 8.0 21.0 0.11 0.15 0.05 93 1003.9
20260508122004 58 304 8.0 17.0 0.09 0.14 0.04 93 1003.9
20260508121718 58 306 8.0 17.0 0.08 0.13 0.02 93 1003.9
20260508121217 58 309 8.0 19.0 0.08 0.13 0.02 92 1003.9
20260508120504 58 295 9.0 25.0 0.07 0.12 0.01 92 1003.9
20260508120004 59 298 8.0 25.0 0.06 0.11 0.00 92 1003.9
20260508115718 59 302 7.0 20.0 0.06 0.11 0.11 91 1003.9
20260508115004 61 297 6.0 15.0 0.02 0.07 0.07 91 1003.7
20260508114504 62 298 6.0 15.0 0.01 0.06 0.06 90 1003.6
20260508114004 62 301 4.0 15.0 0.00 0.05 0.05 89 1003.3
20260508113717 62 301 3.0 15.0 0.00 0.05 0.05 90 1003.2
20260508113005 61 0 0.0 3.0 0.00 0.05 0.05 90 1002.9
20260508112719 61 0 0.0 2.0 0.00 0.05 0.05 90 1002.9
20260508112004 61 0 0.0 2.0 0.00 0.05 0.05 90 1002.9
20260508111504 61 0 0.0 0.0 0.01 0.05 0.05 89 1003.0
20260508111005 61 0 0.0 0.0 0.01 0.05 0.05 89 1003.1
20260508110504 61 0 0.0 0.0 0.01 0.05 0.05 89 1003.2
20260508110004 61 0 0.0 0.0 0.01 0.05 0.05 89 1003.4
20260508105504 61 0 0.0 0.0 0.04 0.05 0.05 89 1003.6
20260508105004 61 0 0.0 0.0 0.05 0.05 0.05 88 1003.7
20260508104504 61 0 0.0 1.0 0.05 0.05 0.05 88 1003.7
20260508104004 62 0 0.0 2.0 0.05 0.05 0.05 88 1003.7
20260508103504 62 290 0.0 3.0 0.05 0.05 0.05 88 1003.8
20260508103004 62 294 0.0 3.0 0.05 0.05 0.05 88 1003.7
20260508102504 62 289 1.0 3.0 0.05 0.05 0.05 87 1003.8
20260508102004 62 283 1.0 3.0 0.05 0.05 0.05 87 1003.9
20260508101504 62 282 1.0 4.0 0.04 0.04 0.04 86 1004.0
20260508101004 63 287 1.0 7.0 0.04 0.04 0.04 86 1004.0
20260508100504 63 293 2.0 7.0 0.04 0.04 0.04 84 1004.1
20260508100004 64 300 2.0 16.0 0.04 0.04 0.04 83 1004.0
20260508095504 64 296 3.0 16.0 0.01 0.01 0.01 81 1003.9
20260508095004 64 284 2.0 9.0 0.00 0.00 0.00 80 1003.9
20260508094719 64 302 2.0 9.0 0.00 0.00 0.00 79 1003.9
20260508094003 64 303 1.0 7.0 0.00 0.00 0.00 79 1004.0
20260508093504 65 284 1.0 9.0 0.00 0.00 0.00 78 1004.0
20260508093004 65 298 2.0 9.0 0.00 0.00 0.00 77 1004.0
20260508092719 65 302 2.0 9.0 0.00 0.00 0.00 77 1003.9
20260508092218 65 309 2.0 9.0 0.00 0.00 0.00 75 1004.0
20260508091504 66 286 2.0 6.0 0.00 0.00 0.00 74 1004.3
20260508091004 65 277 1.0 4.0 0.00 0.00 0.00 74 1004.5
20260508090504 65 278 1.0 4.0 0.00 0.00 0.00 74 1004.4
20260508090004 65 287 1.0 5.0 0.00 0.00 0.00 75 1004.2
20260508085718 65 287 1.0 5.0 0.00 0.00 0.00 75 1004.1
20260508085218 65 281 1.0 5.0 0.00 0.00 0.00 75 1004.0
20260508084504 65 296 2.0 6.0 0.00 0.00 0.00 75 1003.9
20260508084004 65 304 2.0 6.0 0.00 0.00 0.00 75 1003.8
20260508083504 65 307 2.0 5.0 0.00 0.00 0.00 74 1004.0
20260508083004 66 311 2.0 8.0 0.00 0.00 0.00 73 1004.1
20260508082504 66 309 2.0 8.0 0.00 0.00 0.00 73 1004.2
20260508082004 65 301 2.0 7.0 0.00 0.00 0.00 74 1004.3
20260508081504 65 313 2.0 9.0 0.00 0.00 0.00 74 1004.3
20260508081219 65 311 2.0 9.0 0.00 0.00 0.00 75 1004.3
20260508080718 65 310 2.0 9.0 0.00 0.00 0.00 75 1004.6
20260508080004 64 297 1.0 5.0 0.00 0.00 0.00 75 1004.8
20260508075504 64 306 2.0 5.0 0.00 0.00 0.00 75 1004.9
20260508075004 64 299 2.0 4.0 0.00 0.00 0.00 76 1005.0
20260508074504 64 277 1.0 4.0 0.00 0.00 0.00 75 1005.2
20260508074004 64 272 1.0 7.0 0.00 0.00 0.00 76 1005.3
20260508073718 64 279 2.0 7.0 0.00 0.00 0.00 76 1005.4
20260508073004 64 285 2.0 6.0 0.00 0.00 0.00 76 1005.6
20260508072503 64 280 1.0 6.0 0.00 0.00 0.00 76 1005.6
20260508072004 64 274 1.0 4.0 0.00 0.00 0.00 76 1005.5
20260508071504 64 273 1.0 4.0 0.00 0.00 0.00 76 1005.5
20260508071219 64 273 1.0 4.0 0.00 0.00 0.00 76 1005.4
20260508070504 63 268 1.0 3.0 0.00 0.00 0.00 76 1005.4
20260508070004 63 286 1.0 3.0 0.00 0.00 0.00 76 1005.3
20260508065504 63 321 1.0 9.0 0.00 0.00 0.00 76 1005.3
20260508065004 63 334 2.0 9.0 0.00 0.00 0.00 76 1005.4